EJU826B LIRP-LIEO

Flight info

Callsign EJU826B
Flight time 0h 33m
Altitude 19000
Route GOVGO Z254 ELB Q125 OLBEK
Aircraft A319/M-SDE3FGHIRWY/LB1

Departure

Time 2026-04-28 20:46
Airport Pisa International Airport (LIRP)

Arrival

Time 2026-04-28 21:19
Airport Olbia Costa Smeralda Airport (LIEO)
Time Latitude Longitude Altitude Speed Heading
2026-04-28 20:24 43.69757 10.40031 42 ft 0 kts
2026-04-28 20:36 43.69753 10.40031 14 ft 2 kts
2026-04-28 20:37 43.69736 10.40027 14 ft 2 kts
2026-04-28 20:37 43.69720 10.40024 14 ft 2 kts
2026-04-28 20:37 43.69705 10.40027 14 ft 2 kts 315°
2026-04-28 20:37 43.69695 10.40045 15 ft 2 kts 295°
2026-04-28 20:38 43.69689 10.40067 16 ft 2 kts 267°
2026-04-28 20:38 43.69689 10.40078 14 ft 0 kts 238°
2026-04-28 20:41 43.69678 10.40059 14 ft 6 kts 223°
2026-04-28 20:42 43.69624 10.40058 15 ft 9 kts 171°
2026-04-28 20:42 43.69561 10.40071 15 ft 9 kts 172°
2026-04-28 20:42 43.69492 10.40085 18 ft 12 kts 172°
2026-04-28 20:42 43.69406 10.40101 18 ft 12 kts 172°
2026-04-28 20:43 43.69343 10.40178 17 ft 14 kts 126°
2026-04-28 20:43 43.69321 10.40219 14 ft 0 kts 126°
2026-04-28 20:44 43.69314 10.40232 14 ft 6 kts 126°
2026-04-28 20:44 43.69269 10.40307 10 ft 12 kts 147°
2026-04-28 20:44 43.69220 10.40293 10 ft 0 kts 216°
2026-04-28 20:45 43.69205 10.40278 12 ft 11 kts 216°
2026-04-28 20:45 43.68918 10.39982 11 ft 90 kts 217°
2026-04-28 20:45 43.68233 10.39275 15 ft 152 kts 217°
2026-04-28 20:45 43.67345 10.38360 532 ft 159 kts 218°
2026-04-28 20:46 43.66756 10.37766 1067 ft 156 kts 218°
2026-04-28 20:46 43.65837 10.36843 1589 ft 173 kts 217°
2026-04-28 20:46 43.64809 10.35794 2013 ft 195 kts 217°
2026-04-28 20:46 43.63653 10.34617 2707 ft 212 kts 218°
2026-04-28 20:47 43.62757 10.32991 3524 ft 222 kts 252°
2026-04-28 20:47 43.62824 10.30869 4330 ft 229 kts 292°
2026-04-28 20:47 43.63661 10.28978 5256 ft 233 kts 308°
2026-04-28 20:47 43.64719 10.27243 6115 ft 239 kts 311°
2026-04-28 20:48 43.65832 10.25514 6935 ft 243 kts 311°
2026-04-28 20:48 43.67126 10.24001 7723 ft 248 kts 336°
2026-04-28 20:48 43.68802 10.23564 8611 ft 248 kts
2026-04-28 20:48 43.70416 10.24323 9502 ft 248 kts 35°
2026-04-28 20:49 43.71812 10.25735 10355 ft 250 kts 39°
2026-04-28 20:49 43.73003 10.27454 11095 ft 253 kts 59°
2026-04-28 20:49 43.73661 10.29765 11740 ft 265 kts 82°
2026-04-28 20:49 43.73525 10.32378 12073 ft 285 kts 110°
2026-04-28 20:50 43.72414 10.34717 12411 ft 304 kts 141°
2026-04-28 20:50 43.70488 10.36032 12733 ft 321 kts 171°
2026-04-28 20:50 43.68219 10.36115 12988 ft 342 kts 185°
2026-04-28 20:50 43.65788 10.35783 13399 ft 358 kts 189°
2026-04-28 20:51 43.63305 10.35282 14084 ft 364 kts 190°
2026-04-28 20:51 43.60785 10.34736 14757 ft 369 kts 190°
2026-04-28 20:51 43.58202 10.34196 15477 ft 373 kts 190°
2026-04-28 20:51 43.55653 10.33702 16147 ft 377 kts 189°
2026-04-28 20:52 43.53040 10.33235 16837 ft 380 kts 189°
2026-04-28 20:52 43.50364 10.32787 17541 ft 384 kts 189°
2026-04-28 20:52 43.47732 10.32362 18238 ft 387 kts 189°
2026-04-28 20:52 43.45040 10.31927 18842 ft 391 kts 189°
2026-04-28 20:53 43.39596 10.31030 20026 ft 397 kts 189°
2026-04-28 20:53 43.36835 10.30569 20601 ft 401 kts 189°
2026-04-28 20:53 43.34055 10.30104 21156 ft 404 kts 189°
2026-04-28 20:54 43.31249 10.29631 21700 ft 408 kts 189°
2026-04-28 20:54 43.28423 10.29157 22236 ft 411 kts 189°
2026-04-28 20:54 43.25572 10.28678 22755 ft 414 kts 190°
2026-04-28 20:54 43.22698 10.28194 23266 ft 418 kts 190°
2026-04-28 20:55 43.19799 10.27708 23750 ft 421 kts 190°
2026-04-28 20:55 43.16881 10.27222 24161 ft 424 kts 190°
2026-04-28 20:55 43.13940 10.26733 24557 ft 427 kts 189°
2026-04-28 20:55 43.10979 10.26240 24934 ft 430 kts 189°
2026-04-28 20:56 43.08008 10.25742 25051 ft 430 kts 189°
2026-04-28 20:56 43.05035 10.25245 25083 ft 430 kts 189°
2026-04-28 20:56 43.02064 10.24752 25083 ft 430 kts 189°
2026-04-28 20:56 42.99091 10.24264 25085 ft 430 kts 189°
2026-04-28 20:57 42.96123 10.23777 25080 ft 430 kts 189°
2026-04-28 20:57 42.93153 10.23291 25084 ft 430 kts 189°
2026-04-28 20:57 42.90182 10.22802 25082 ft 430 kts 189°
2026-04-28 20:57 42.87209 10.22310 25082 ft 430 kts 189°
2026-04-28 20:58 42.84238 10.21815 25082 ft 430 kts 189°
2026-04-28 20:58 42.81263 10.21317 25082 ft 430 kts 189°
2026-04-28 20:58 42.78293 10.20826 25084 ft 430 kts 189°
2026-04-28 20:58 42.75320 10.20337 25084 ft 431 kts 189°
2026-04-28 20:59 42.72348 10.19847 25084 ft 430 kts 189°
2026-04-28 20:59 42.69384 10.19361 25084 ft 429 kts 189°
2026-04-28 20:59 42.66414 10.18875 25084 ft 429 kts 189°
2026-04-28 20:59 42.63453 10.18389 25084 ft 429 kts 189°
2026-04-28 21:00 42.60489 10.17902 25084 ft 429 kts 189°
2026-04-28 21:00 42.57526 10.17418 25084 ft 429 kts 189°
2026-04-28 21:00 42.54557 10.16935 25081 ft 430 kts 189°
2026-04-28 21:00 42.51584 10.16452 25084 ft 431 kts 189°
2026-04-28 21:01 42.48611 10.15970 25084 ft 431 kts 189°
2026-04-28 21:01 42.45635 10.15488 25084 ft 431 kts 189°
2026-04-28 21:01 42.42693 10.15007 25084 ft 431 kts 189°
2026-04-28 21:01 42.39718 10.14520 25081 ft 431 kts 189°
2026-04-28 21:02 42.36738 10.14030 25081 ft 431 kts 189°
2026-04-28 21:02 42.33760 10.13542 25081 ft 431 kts 189°
2026-04-28 21:02 42.30786 10.13059 25086 ft 431 kts 189°
2026-04-28 21:02 42.27809 10.12578 25087 ft 431 kts 189°
2026-04-28 21:03 42.24831 10.12098 25087 ft 431 kts 189°
2026-04-28 21:03 42.21856 10.11620 25087 ft 431 kts 189°
2026-04-28 21:03 42.18877 10.11141 25085 ft 431 kts 189°
2026-04-28 21:03 42.15903 10.10659 25080 ft 431 kts 189°
2026-04-28 21:04 42.12923 10.10175 25084 ft 431 kts 189°
2026-04-28 21:04 42.09705 10.09655 25084 ft 431 kts 189°
2026-04-28 21:04 42.03751 10.08700 25084 ft 431 kts 189°
2026-04-28 21:04 41.97524 10.07700 25084 ft 431 kts 189°
2026-04-28 21:05 41.85598 10.05791 25074 ft 433 kts 188°
2026-04-28 21:05 41.73834 10.02754 25113 ft 430 kts 197°
2026-04-28 21:05 41.62215 9.98514 24987 ft 442 kts 197°
2026-04-28 21:05 41.50063 9.94109 24015 ft 450 kts 196°
2026-04-28 21:06 41.38045 9.89761 23015 ft 444 kts 196°
2026-04-28 21:06 41.25970 9.87516 21841 ft 440 kts 172°
2026-04-28 21:06 41.15618 9.94969 20866 ft 436 kts 145°
2026-04-28 21:06 41.05561 10.04101 19699 ft 426 kts 146°
2026-04-28 21:07 40.95079 10.10237 16976 ft 423 kts 191°
2026-04-28 21:07 40.91455 10.07950 15685 ft 405 kts 224°
2026-04-28 21:07 40.89929 10.04980 15439 ft 380 kts 248°
2026-04-28 21:07 40.89497 10.01693 15063 ft 365 kts 272°
2026-04-28 21:08 40.90159 9.98478 14563 ft 365 kts 295°
2026-04-28 21:08 40.91298 9.95518 14231 ft 356 kts 296°
2026-04-28 21:08 40.92441 9.92685 14101 ft 342 kts 297°
2026-04-28 21:08 40.93683 9.87008 13834 ft 315 kts 261°
2026-04-28 21:09 40.91713 9.82201 13558 ft 291 kts 233°
2026-04-28 21:09 40.89368 9.78026 13195 ft 277 kts 233°
2026-04-28 21:09 40.87145 9.73918 12686 ft 272 kts 234°
2026-04-28 21:09 40.85006 9.69843 12169 ft 266 kts 234°
2026-04-28 21:10 40.82917 9.65841 11660 ft 264 kts 235°
2026-04-28 21:10 40.80846 9.61871 11182 ft 262 kts 234°
2026-04-28 21:10 40.78794 9.57954 10684 ft 255 kts 234°
2026-04-28 21:10 40.76785 9.54115 9926 ft 259 kts 235°
2026-04-28 21:11 40.74654 9.50044 8787 ft 271 kts 234°
2026-04-28 21:11 40.72535 9.46003 7842 ft 265 kts 235°
2026-04-28 21:11 40.70431 9.41996 6578 ft 268 kts 235°
2026-04-28 21:11 40.68370 9.38082 6264 ft 250 kts 234°
2026-04-28 21:12 40.66635 9.34802 5774 ft 242 kts 234°
2026-04-28 21:12 40.65906 9.32752 5102 ft 256 kts 259°
2026-04-28 21:12 40.66099 9.30422 5004 ft 263 kts 291°
2026-04-28 21:12 40.67165 9.28484 5008 ft 266 kts 320°
2026-04-28 21:13 40.68772 9.27392 4718 ft 265 kts 343°
2026-04-28 21:13 40.70556 9.26852 4412 ft 257 kts 348°
2026-04-28 21:13 40.72277 9.26404 4281 ft 248 kts 349°
2026-04-28 21:13 40.73955 9.26128 4151 ft 238 kts
2026-04-28 21:14 40.75543 9.26534 4046 ft 228 kts 21°
2026-04-28 21:14 40.76878 9.27539 4000 ft 215 kts 40°
2026-04-28 21:14 40.77869 9.28937 3993 ft 203 kts 57°
2026-04-28 21:14 40.79095 9.31266 3975 ft 202 kts 56°
2026-04-28 21:15 40.80684 9.34276 3617 ft 191 kts 56°
2026-04-28 21:15 40.82047 9.36865 2917 ft 191 kts 56°
2026-04-28 21:15 40.82789 9.38276 2649 ft 182 kts 57°
2026-04-28 21:15 40.83495 9.39618 2384 ft 175 kts 56°
2026-04-28 21:16 40.84174 9.40909 2133 ft 165 kts 57°
2026-04-28 21:16 40.84807 9.42112 1867 ft 154 kts 59°
2026-04-28 21:16 40.85393 9.43228 1638 ft 142 kts 58°
2026-04-28 21:16 40.85938 9.44263 1409 ft 133 kts 59°
2026-04-28 21:17 40.86458 9.45256 1222 ft 132 kts 57°
2026-04-28 21:17 40.86981 9.46255 1019 ft 131 kts 59°
2026-04-28 21:17 40.87299 9.46856 928 ft 129 kts 58°
2026-04-28 21:17 40.87814 9.47833 721 ft 127 kts 63°
2026-04-28 21:18 40.88304 9.48789 523 ft 124 kts 57°
2026-04-28 21:18 40.88713 9.49555 352 ft 128 kts 58°
2026-04-28 21:18 40.88861 9.49840 327 ft 125 kts 60°
2026-04-28 21:18 40.89357 9.50787 75 ft 125 kts 62°
2026-04-28 21:19 40.89795 9.51631 30 ft 90 kts 55°
2026-04-28 21:19 40.90045 9.52113 26 ft 50 kts 56°
2026-04-28 21:19 40.90222 9.52447 25 ft 39 kts 55°
2026-04-28 21:19 40.90348 9.52676 21 ft 15 kts 40°
2026-04-28 21:20 40.90424 9.52676 22 ft 11 kts 336°
2026-04-28 21:20 40.90452 9.52586 23 ft 11 kts 276°
2026-04-28 21:20 40.90449 9.52485 21 ft 11 kts 244°
2026-04-28 21:20 40.90403 9.52400 22 ft 12 kts 234°
2026-04-28 21:21 40.90359 9.52309 23 ft 12 kts 237°
2026-04-28 21:21 40.90305 9.52204 24 ft 15 kts 235°
2026-04-28 21:21 40.90240 9.52078 26 ft 17 kts 236°
2026-04-28 21:21 40.90179 9.51950 27 ft 13 kts 254°
2026-04-28 21:22 40.90191 9.51841 26 ft 9 kts 297°
2026-04-28 21:22 40.90219 9.51808 28 ft 2 kts 322°
2026-04-28 21:22 40.90230 9.51772 27 ft 6 kts 258°
2026-04-28 21:22 40.90221 9.51749 36 ft 2 kts 247°
2026-04-28 21:23 40.90230 9.51736 36 ft 4 kts 313°
2026-04-28 21:23 40.90260 9.51709 34 ft 2 kts 324°
2026-04-28 21:23 40.90264 9.51704 36 ft 0 kts 324°